Time,TemperatureF,DewpointF,PressureIn,WindDirection,WindDirectionDegrees,WindSpeedMPH,WindSpeedGustMPH,Humidity,HourlyPrecipIn,Conditions,Clouds,dailyrainin,SoftwareType,DateUTC
2013-06-30 00:00:00,71.1,65.3,29.59,SSE,158,4.6,4.6,82,0.00,CLR,,0.00,WeatherDisplay:10.37,2013-06-30 04:00:00,
2013-06-30 00:01:00,71.1,65.3,29.59,NE,45,4.6,4.6,82,0.00,CLR,,0.00,WeatherDisplay:10.37,2013-06-30 04:01:00,
2013-06-30 00:06:00,71.1,65.3,29.60,West,270,2.3,2.3,82,0.00,CLR,,0.00,WeatherDisplay:10.37,2013-06-30 04:06:00,
2013-06-30 00:11:00,70.9,65.1,29.60,East,90,3.5,3.5,82,0.00,CLR,,0.00,WeatherDisplay:10.37,2013-06-30 04:11:00,
2013-06-30 00:16:00,70.9,65.5,29.60,ENE,68,0.0,0.0,83,0.00,CLR,,0.00,WeatherDisplay:10.37,2013-06-30 04:16:00,
2013-06-30 00:21:00,70.9,65.5,29.60,East,90,3.5,3.5,83,0.00,CLR,,0.00,WeatherDisplay:10.37,2013-06-30 04:21:00,
2013-06-30 00:26:00,71.1,65.7,29.61,West,270,2.3,2.3,83,0.00,CLR,,0.00,WeatherDisplay:10.37,2013-06-30 04:26:00,
2013-06-30 00:31:00,70.9,65.5,29.61,East,90,0.0,0.5,83,0.00,CLR,,0.00,WeatherDisplay:10.37,2013-06-30 04:31:00,
2013-06-30 00:36:00,70.7,65.6,29.61,NE,45,1.2,0.0,84,0.00,CLR,,0.00,WeatherDisplay:10.37,2013-06-30 04:36:00,
2013-06-30 00:41:00,70.7,65.6,29.60,ESE,112,2.3,0.0,84,0.00,CLR,,0.00,WeatherDisplay:10.37,2013-06-30 04:41:00,
2013-06-30 00:46:00,70.5,65.4,29.60,NNE,22,3.5,3.5,84,0.00,CLR,,0.00,WeatherDisplay:10.37,2013-06-30 04:46:00,
2013-06-30 00:52:00,70.5,65.8,29.61,West,270,3.2,3.2,85,0.00,CLR,,0.00,WeatherDisplay:10.37,2013-06-30 04:52:00,
2013-06-30 00:57:00,70.5,65.8,29.61,East,90,2.3,2.3,85,0.00,CLR,,0.00,WeatherDisplay:10.37,2013-06-30 04:57:00,
2013-06-30 01:02:00,70.5,65.8,29.61,WNW,292,2.7,2.7,85,0.00,CLR,,0.00,WeatherDisplay:10.37,2013-06-30 05:02:00,
2013-06-30 01:07:00,70.5,65.8,29.61,NNE,22,3.5,3.5,85,0.00,CLR,,0.00,WeatherDisplay:10.37,2013-06-30 05:07:00,
2013-06-30 01:12:00,70.5,65.8,29.61,East,90,2.3,2.7,85,0.00,CLR,,0.00,WeatherDisplay:10.37,2013-06-30 05:12:00,
2013-06-30 01:17:00,70.5,65.8,29.61,NE,45,2.3,2.3,85,0.00,CLR,,0.00,WeatherDisplay:10.37,2013-06-30 05:17:00,
2013-06-30 01:22:00,70.5,65.8,29.61,ESE,112,3.7,3.7,85,0.00,CLR,,0.00,WeatherDisplay:10.37,2013-06-30 05:22:00,
2013-06-30 01:27:00,70.5,65.8,29.61,East,90,3.5,3.5,85,0.00,CLR,,0.00,WeatherDisplay:10.37,2013-06-30 05:27:00,
2013-06-30 01:32:00,70.7,66.0,29.61,West,270,5.8,5.8,85,0.00,CLR,,0.00,WeatherDisplay:10.37,2013-06-30 05:32:00,
2013-06-30 01:37:00,70.9,65.8,29.61,NE,45,2.3,2.3,84,0.00,CLR,,0.00,WeatherDisplay:10.37,2013-06-30 05:37:00,
2013-06-30 01:42:00,70.9,65.8,29.61,SE,135,3.5,3.5,84,0.00,CLR,,0.00,WeatherDisplay:10.37,2013-06-30 05:42:00,
2013-06-30 01:47:00,70.7,65.6,29.61,South,180,2.3,2.3,84,0.00,CLR,,0.00,WeatherDisplay:10.37,2013-06-30 05:47:00,
2013-06-30 01:52:00,70.5,65.8,29.61,WNW,292,3.5,3.5,85,0.00,CLR,,0.00,WeatherDisplay:10.37,2013-06-30 05:52:00,
2013-06-30 01:57:00,70.3,65.6,29.61,WSW,248,4.6,4.6,85,0.00,CLR,,0.00,WeatherDisplay:10.37,2013-06-30 05:57:00,
2013-06-30 02:02:00,70.3,65.6,29.61,ESE,112,1.2,1.2,85,0.00,CLR,,0.00,WeatherDisplay:10.37,2013-06-30 06:02:00,
2013-06-30 02:07:00,70.3,65.6,29.61,SE,135,1.7,1.7,85,0.00,CLR,,0.00,WeatherDisplay:10.37,2013-06-30 06:07:00,
2013-06-30 02:12:00,70.2,65.5,29.61,SSE,158,4.6,4.6,85,0.00,CLR,,0.00,WeatherDisplay:10.37,2013-06-30 06:12:00,
2013-06-30 02:17:00,70.0,65.6,29.61,ESE,112,2.3,2.3,86,0.00,CLR,,0.00,WeatherDisplay:10.37,2013-06-30 06:17:00,
2013-06-30 02:22:00,70.0,65.6,29.61,WNW,292,1.2,1.2,86,0.00,CLR,,0.00,WeatherDisplay:10.37,2013-06-30 06:22:00,
2013-06-30 02:27:00,70.0,65.6,29.61,SE,135,2.3,2.3,86,0.00,CLR,,0.00,WeatherDisplay:10.37,2013-06-30 06:27:00,
2013-06-30 02:32:00,69.8,65.4,29.61,West,270,0.0,0.0,86,0.00,CLR,,0.00,WeatherDisplay:10.37,2013-06-30 06:32:00,
2013-06-30 02:37:00,69.8,65.8,29.61,ENE,68,1.7,1.7,87,0.00,CLR,,0.00,WeatherDisplay:10.37,2013-06-30 06:37:00,
2013-06-30 02:42:00,69.6,65.6,29.61,NE,45,0.0,0.0,87,0.00,CLR,,0.00,WeatherDisplay:10.37,2013-06-30 06:42:00,
2013-06-30 02:47:00,69.6,65.6,29.61,NE,45,1.2,1.2,87,0.00,CLR,,0.00,WeatherDisplay:10.37,2013-06-30 06:47:00,
2013-06-30 02:52:00,69.6,65.6,29.62,NNE,22,1.7,1.7,87,0.00,CLR,,0.00,WeatherDisplay:10.37,2013-06-30 06:52:00,
2013-06-30 02:57:00,69.8,65.8,29.62,SSE,158,2.3,2.3,87,0.00,CLR,,0.00,WeatherDisplay:10.37,2013-06-30 06:57:00,
2013-06-30 03:02:00,69.4,65.4,29.62,South,180,1.2,0.0,87,0.00,CLR,,0.00,WeatherDisplay:10.37,2013-06-30 07:02:00,
2013-06-30 03:07:00,69.4,65.7,29.62,NNE,22,0.0,0.0,88,0.00,CLR,,0.00,WeatherDisplay:10.37,2013-06-30 07:07:00,
2013-06-30 03:12:00,69.3,65.6,29.62,ENE,68,1.2,1.2,88,0.00,CLR,,0.00,WeatherDisplay:10.37,2013-06-30 07:12:00,
2013-06-30 03:17:00,69.3,65.6,29.62,East,90,0.0,0.0,88,0.00,CLR,,0.00,WeatherDisplay:10.37,2013-06-30 07:17:00,
2013-06-30 03:22:00,69.3,65.6,29.62,NNE,22,1.2,1.2,88,0.00,CLR,,0.00,WeatherDisplay:10.37,2013-06-30 07:22:00,
2013-06-30 03:27:00,69.1,65.7,29.62,ENE,68,1.2,1.2,89,0.00,CLR,,0.00,WeatherDisplay:10.37,2013-06-30 07:27:00,
2013-06-30 03:32:00,68.9,65.5,29.62,NE,45,0.0,0.0,89,0.00,CLR,,0.00,WeatherDisplay:10.37,2013-06-30 07:32:00,
2013-06-30 03:37:00,68.9,65.5,29.62,WNW,292,0.0,0.0,89,0.00,CLR,,0.00,WeatherDisplay:10.37,2013-06-30 07:37:00,
2013-06-30 03:42:00,68.9,65.5,29.62,NNE,22,0.0,0.0,89,0.00,CLR,,0.00,WeatherDisplay:10.37,2013-06-30 07:42:00,
2013-06-30 03:47:00,68.7,65.6,29.62,ENE,68,0.0,0.0,90,0.00,CLR,,0.00,WeatherDisplay:10.37,2013-06-30 07:47:00,
2013-06-30 03:52:00,68.5,65.4,29.62,ESE,112,0.0,0.0,90,0.00,CLR,,0.00,WeatherDisplay:10.37,2013-06-30 07:52:00,
2013-06-30 03:57:00,68.5,65.4,29.62,NNE,22,0.0,0.0,90,0.00,CLR,,0.00,WeatherDisplay:10.37,2013-06-30 07:57:00,
2013-06-30 04:02:00,68.4,65.4,29.62,NNE,22,3.5,3.5,90,0.00,CLR,,0.00,WeatherDisplay:10.37,2013-06-30 08:02:00,
2013-06-30 04:07:00,68.4,65.4,29.62,ESE,112,0.0,0.0,90,0.00,CLR,,0.00,WeatherDisplay:10.37,2013-06-30 08:07:00,
2013-06-30 04:12:00,68.5,65.8,29.62,NE,45,0.0,0.0,91,0.00,CLR,,0.00,WeatherDisplay:10.37,2013-06-30 08:12:00,
2013-06-30 04:17:00,68.5,65.8,29.63,WNW,292,1.2,0.0,91,0.00,CLR,,0.00,WeatherDisplay:10.37,2013-06-30 08:17:00,
2013-06-30 04:22:00,68.5,65.8,29.63,NNE,22,0.0,0.0,91,0.00,CLR,,0.00,WeatherDisplay:10.37,2013-06-30 08:22:00,
2013-06-30 04:27:00,68.4,65.7,29.64,NE,45,0.0,0.0,91,0.00,CLR,,0.00,WeatherDisplay:10.37,2013-06-30 08:27:00,
2013-06-30 04:32:00,68.2,65.5,29.64,NNE,22,0.0,0.0,91,0.00,CLR,,0.00,WeatherDisplay:10.37,2013-06-30 08:32:00,
2013-06-30 04:37:00,68.2,65.5,29.64,NE,45,2.3,2.3,91,0.00,CLR,,0.00,WeatherDisplay:10.37,2013-06-30 08:37:00,
2013-06-30 04:42:00,68.2,65.5,29.64,NE,45,1.2,1.2,91,0.00,CLR,,0.00,WeatherDisplay:10.37,2013-06-30 08:42:00,
2013-06-30 04:47:00,68.2,65.5,29.64,East,90,0.0,0.0,91,0.00,CLR,,0.00,WeatherDisplay:10.37,2013-06-30 08:47:00,
2013-06-30 04:52:00,68.2,65.8,29.64,NE,45,0.0,0.0,92,0.00,CLR,,0.00,WeatherDisplay:10.37,2013-06-30 08:52:00,
2013-06-30 04:57:00,68.2,65.8,29.64,NNE,22,0.0,0.0,92,0.00,CLR,,0.00,WeatherDisplay:10.37,2013-06-30 08:57:00,
2013-06-30 05:02:00,68.0,65.6,29.64,NNE,22,0.0,0.0,92,0.00,CLR,,0.00,WeatherDisplay:10.37,2013-06-30 09:02:00,
2013-06-30 05:07:00,67.8,65.4,29.64,South,180,0.0,0.0,92,0.00,CLR,,0.00,WeatherDisplay:10.37,2013-06-30 09:07:00,
2013-06-30 05:12:00,67.6,65.2,29.64,East,90,0.0,0.0,92,0.00,CLR,,0.00,WeatherDisplay:10.37,2013-06-30 09:12:00,
2013-06-30 05:17:00,67.5,65.1,29.64,East,90,0.0,0.0,92,0.00,CLR,,0.00,WeatherDisplay:10.37,2013-06-30 09:17:00,
2013-06-30 05:22:00,67.3,64.9,29.64,NE,45,0.0,0.0,92,0.00,CLR,,0.00,WeatherDisplay:10.37,2013-06-30 09:22:00,
2013-06-30 05:27:00,67.3,64.9,29.64,WNW,292,0.0,0.0,92,0.00,CLR,,0.00,WeatherDisplay:10.37,2013-06-30 09:27:00,
2013-06-30 05:32:00,67.3,64.9,29.64,West,270,0.0,0.0,92,0.00,CLR,,0.00,WeatherDisplay:10.37,2013-06-30 09:32:00,
2013-06-30 05:37:00,67.1,64.7,29.64,ENE,68,0.0,0.0,92,0.00,CLR,,0.00,WeatherDisplay:10.37,2013-06-30 09:37:00,
2013-06-30 05:42:00,67.1,64.7,29.65,NE,45,0.0,0.0,92,0.00,CLR,,0.00,WeatherDisplay:10.37,2013-06-30 09:42:00,
2013-06-30 05:47:00,67.5,65.4,29.65,NNE,22,0.0,0.0,93,0.00,CLR,,0.00,WeatherDisplay:10.37,2013-06-30 09:47:00,
2013-06-30 05:52:00,67.5,65.4,29.65,ESE,112,0.0,0.0,93,0.00,CLR,,0.00,WeatherDisplay:10.37,2013-06-30 09:52:00,
2013-06-30 05:57:00,67.5,65.4,29.65,South,180,0.0,0.0,93,0.00,CLR,,0.00,WeatherDisplay:10.37,2013-06-30 09:57:00,
2013-06-30 06:02:00,68.0,65.9,29.66,ENE,68,0.0,0.0,93,0.00,CLR,,0.00,WeatherDisplay:10.37,2013-06-30 10:02:00,
2013-06-30 06:07:00,68.0,65.9,29.66,ESE,112,1.2,1.2,93,0.00,CLR,,0.00,WeatherDisplay:10.37,2013-06-30 10:07:00,
2013-06-30 06:12:00,68.4,66.3,29.66,East,90,1.7,0.0,93,0.00,CLR,,0.00,WeatherDisplay:10.37,2013-06-30 10:12:00,
2013-06-30 06:17:00,68.4,66.3,29.66,NE,45,0.0,0.0,93,0.00,CLR,,0.00,WeatherDisplay:10.37,2013-06-30 10:17:00,
2013-06-30 06:22:00,68.5,66.4,29.66,SSE,158,0.0,0.0,93,0.00,CLR,,0.00,WeatherDisplay:10.37,2013-06-30 10:22:00,
2013-06-30 06:27:00,68.9,66.8,29.67,ESE,112,0.0,0.0,93,0.00,CLR,,0.00,WeatherDisplay:10.37,2013-06-30 10:27:00,
2013-06-30 06:32:00,69.3,67.2,29.67,ENE,68,0.0,0.0,93,0.00,CLR,,0.00,WeatherDisplay:10.37,2013-06-30 10:32:00,
2013-06-30 06:38:00,69.3,67.2,29.68,ESE,112,0.0,0.0,93,0.00,CLR,,0.00,WeatherDisplay:10.37,2013-06-30 10:38:00,
2013-06-30 06:42:00,69.4,67.3,29.68,ESE,112,0.0,0.0,93,0.00,CLR,,0.00,WeatherDisplay:10.37,2013-06-30 10:42:00,
2013-06-30 06:48:00,69.8,67.4,29.68,ESE,112,0.0,0.0,92,0.00,CLR,,0.00,WeatherDisplay:10.37,2013-06-30 10:48:00,
2013-06-30 06:53:00,70.3,67.9,29.68,SSE,158,2.3,2.5,92,0.00,CLR,,0.00,WeatherDisplay:10.37,2013-06-30 10:53:00,
2013-06-30 06:58:00,70.7,67.9,29.68,ESE,112,1.2,1.2,91,0.00,CLR,,0.00,WeatherDisplay:10.37,2013-06-30 10:58:00,
2013-06-30 07:03:00,70.9,67.8,29.68,ESE,112,2.3,0.0,90,0.00,CLR,,0.00,WeatherDisplay:10.37,2013-06-30 11:03:00,
2013-06-30 07:08:00,71.2,68.1,29.68,SSE,158,1.7,1.7,90,0.00,CLR,,0.00,WeatherDisplay:10.37,2013-06-30 11:08:00,
2013-06-30 07:13:00,72.0,68.2,29.68,ESE,112,1.7,1.7,88,0.00,CLR,,0.00,WeatherDisplay:10.37,2013-06-30 11:13:00,
2013-06-30 07:18:00,73.2,68.8,29.69,West,270,4.6,4.6,86,0.00,CLR,,0.00,WeatherDisplay:10.37,2013-06-30 11:18:00,
2013-06-30 07:23:00,73.2,68.4,29.69,SSE,158,2.3,2.3,85,0.00,CLR,,0.00,WeatherDisplay:10.37,2013-06-30 11:23:00,
2013-06-30 07:28:00,73.9,68.8,29.69,South,180,3.5,3.5,84,0.00,CLR,,0.00,WeatherDisplay:10.37,2013-06-30 11:28:00,
2013-06-30 07:33:00,74.3,68.4,29.69,NE,45,2.2,2.2,82,0.00,CLR,,0.00,WeatherDisplay:10.37,2013-06-30 11:33:00,
2013-06-30 07:38:00,75.0,68.8,29.70,SSE,158,1.2,1.2,81,0.00,CLR,,0.00,WeatherDisplay:10.37,2013-06-30 11:38:00,
2013-06-30 07:43:00,75.7,68.4,29.70,East,90,5.8,5.8,78,0.00,CLR,,0.00,WeatherDisplay:10.37,2013-06-30 11:43:00,
2013-06-30 07:48:00,75.7,68.4,29.70,SSE,158,6.9,6.9,78,0.00,CLR,,0.00,WeatherDisplay:10.37,2013-06-30 11:48:00,
2013-06-30 07:53:00,75.9,68.5,29.70,NNE,22,4.2,4.2,78,0.00,CLR,,0.00,WeatherDisplay:10.37,2013-06-30 11:53:00,
2013-06-30 07:58:00,76.8,68.7,29.70,NE,45,3.5,3.5,76,0.00,CLR,,0.00,WeatherDisplay:10.37,2013-06-30 11:58:00,
2013-06-30 08:03:00,76.6,68.5,29.70,WNW,292,5.8,5.8,76,0.00,CLR,,0.00,WeatherDisplay:10.37,2013-06-30 12:03:00,
2013-06-30 08:08:00,76.5,68.7,29.70,SSE,158,3.5,3.5,77,0.00,CLR,,0.00,WeatherDisplay:10.37,2013-06-30 12:08:00,
2013-06-30 08:13:00,76.8,68.7,29.70,ESE,112,2.7,2.7,76,0.00,CLR,,0.00,WeatherDisplay:10.37,2013-06-30 12:13:00,
2013-06-30 08:18:00,77.0,68.9,29.71,SE,135,3.7,3.7,76,0.00,CLR,,0.00,WeatherDisplay:10.37,2013-06-30 12:18:00,
2013-06-30 08:23:00,77.5,68.6,29.71,SSE,158,5.8,5.8,74,0.00,CLR,,0.00,WeatherDisplay:10.37,2013-06-30 12:23:00,
2013-06-30 08:28:00,77.7,68.7,29.71,SSE,158,4.6,4.6,74,0.00,CLR,,0.00,WeatherDisplay:10.37,2013-06-30 12:28:00,
2013-06-30 08:33:00,77.2,69.0,29.71,NNE,22,2.3,2.3,76,0.00,CLR,,0.00,WeatherDisplay:10.37,2013-06-30 12:33:00,
2013-06-30 08:38:00,78.1,69.1,29.71,NE,45,3.5,3.5,74,0.00,CLR,,0.00,WeatherDisplay:10.37,2013-06-30 12:38:00,
2013-06-30 08:43:00,78.3,68.9,29.71,South,180,4.6,4.6,73,0.00,CLR,,0.00,WeatherDisplay:10.37,2013-06-30 12:43:00,
2013-06-30 08:48:00,78.6,68.4,29.71,East,90,4.6,4.6,71,0.00,CLR,,0.00,WeatherDisplay:10.37,2013-06-30 12:48:00,
2013-06-30 08:53:00,79.5,68.9,29.71,SE,135,3.5,3.5,70,0.00,CLR,,0.00,WeatherDisplay:10.37,2013-06-30 12:53:00,
2013-06-30 08:58:00,78.3,68.5,29.71,SSE,158,3.5,3.5,72,0.00,CLR,,0.00,WeatherDisplay:10.37,2013-06-30 12:58:00,
2013-06-30 09:03:00,79.0,68.4,29.71,NNE,22,3.5,3.5,70,0.00,CLR,,0.00,WeatherDisplay:10.37,2013-06-30 13:03:00,
2013-06-30 09:08:00,79.3,68.7,29.71,NNE,22,3.5,3.5,70,0.00,CLR,,0.00,WeatherDisplay:10.37,2013-06-30 13:08:00,
2013-06-30 09:13:00,80.4,68.4,29.71,West,270,3.5,3.5,67,0.00,CLR,,0.00,WeatherDisplay:10.37,2013-06-30 13:13:00,
2013-06-30 09:18:00,79.3,68.2,29.72,East,90,2.3,2.3,69,0.00,CLR,,0.00,WeatherDisplay:10.37,2013-06-30 13:18:00,
2013-06-30 09:23:00,79.7,67.8,29.72,East,90,4.2,4.2,67,0.00,CLR,,0.00,WeatherDisplay:10.37,2013-06-30 13:23:00,
2013-06-30 09:28:00,81.1,68.7,29.71,SSE,158,3.5,3.5,66,0.00,CLR,,0.00,WeatherDisplay:10.37,2013-06-30 13:28:00,
2013-06-30 09:33:00,80.6,68.2,29.71,ENE,68,3.2,3.2,66,0.00,CLR,,0.00,WeatherDisplay:10.37,2013-06-30 13:33:00,
2013-06-30 09:38:00,81.3,68.4,29.71,ESE,112,1.2,1.2,65,0.00,CLR,,0.00,WeatherDisplay:10.37,2013-06-30 13:38:00,
2013-06-30 09:43:00,82.6,68.3,29.71,South,180,4.6,4.6,62,0.00,CLR,,0.00,WeatherDisplay:10.37,2013-06-30 13:43:00,
2013-06-30 09:48:00,82.6,68.3,29.71,SSE,158,4.6,4.6,62,0.00,CLR,,0.00,WeatherDisplay:10.37,2013-06-30 13:48:00,
2013-06-30 09:53:00,82.4,67.6,29.71,ENE,68,1.2,1.2,61,0.00,CLR,,0.00,WeatherDisplay:10.37,2013-06-30 13:53:00,
2013-06-30 09:58:00,83.1,67.8,29.71,East,90,3.5,3.5,60,0.00,CLR,,0.00,WeatherDisplay:10.37,2013-06-30 13:58:00,
2013-06-30 10:03:00,82.6,66.3,29.71,SE,135,5.8,5.8,58,0.00,CLR,,0.00,WeatherDisplay:10.37,2013-06-30 14:03:00,
2013-06-30 10:08:00,83.1,67.3,29.71,SSE,158,5.8,5.8,59,0.00,CLR,,0.00,WeatherDisplay:10.37,2013-06-30 14:08:00,
2013-06-30 10:13:00,83.8,68.9,29.71,NNE,22,2.3,2.3,61,0.00,CLR,,0.00,WeatherDisplay:10.37,2013-06-30 14:13:00,
2013-06-30 10:18:00,83.8,66.9,29.71,East,90,4.6,4.6,57,0.00,CLR,,0.00,WeatherDisplay:10.37,2013-06-30 14:18:00,
2013-06-30 10:23:00,84.2,67.8,29.71,NE,45,4.6,4.6,58,0.00,CLR,,0.00,WeatherDisplay:10.37,2013-06-30 14:23:00,
2013-06-30 10:28:00,84.2,67.3,29.72,ENE,68,5.8,5.8,57,0.00,CLR,,0.00,WeatherDisplay:10.37,2013-06-30 14:28:00,
2013-06-30 10:33:00,83.8,66.9,29.72,South,180,3.5,3.5,57,0.00,CLR,,0.00,WeatherDisplay:10.37,2013-06-30 14:33:00,
2013-06-30 10:38:00,83.7,66.8,29.72,NE,45,3.5,3.5,57,0.00,CLR,,0.00,WeatherDisplay:10.37,2013-06-30 14:38:00,
2013-06-30 10:43:00,84.2,65.8,29.72,South,180,3.5,3.5,54,0.00,CLR,,0.00,WeatherDisplay:10.37,2013-06-30 14:43:00,
2013-06-30 10:48:00,84.6,67.7,29.72,SE,135,2.7,2.7,57,0.00,CLR,,0.00,WeatherDisplay:10.37,2013-06-30 14:48:00,
2013-06-30 10:53:00,84.7,66.7,29.71,NNE,22,3.7,3.7,55,0.00,CLR,,0.00,WeatherDisplay:10.37,2013-06-30 14:53:00,
2013-06-30 10:58:00,85.5,67.0,29.71,NNE,22,4.2,4.2,54,0.00,CLR,,0.00,WeatherDisplay:10.37,2013-06-30 14:58:00,
2013-06-30 11:03:00,84.7,67.3,29.72,NNE,22,2.7,2.7,56,0.00,CLR,,0.00,WeatherDisplay:10.37,2013-06-30 15:03:00,
2013-06-30 11:08:00,84.0,66.6,29.72,SE,135,2.3,2.5,56,0.00,CLR,,0.00,WeatherDisplay:10.37,2013-06-30 15:08:00,
2013-06-30 11:13:00,84.2,67.3,29.72,ESE,112,3.7,3.7,57,0.00,CLR,,0.00,WeatherDisplay:10.37,2013-06-30 15:13:00,
2013-06-30 11:18:00,84.4,68.0,29.72,ESE,112,1.2,0.0,58,0.00,CLR,,0.00,WeatherDisplay:10.37,2013-06-30 15:18:00,
2013-06-30 11:23:00,85.1,67.6,29.72,ESE,112,2.3,2.3,56,0.00,CLR,,0.00,WeatherDisplay:10.37,2013-06-30 15:23:00,
2013-06-30 11:28:00,84.2,66.3,29.72,NE,45,4.6,4.6,55,0.00,CLR,,0.00,WeatherDisplay:10.37,2013-06-30 15:28:00,
2013-06-30 11:33:00,85.3,66.8,29.72,East,90,2.3,2.3,54,0.00,CLR,,0.00,WeatherDisplay:10.37,2013-06-30 15:33:00,
2013-06-30 11:38:00,85.5,67.5,29.72,West,270,0.0,0.0,55,0.00,CLR,,0.00,WeatherDisplay:10.37,2013-06-30 15:38:00,
2013-06-30 11:43:00,84.9,65.3,29.72,SSE,158,4.6,4.6,52,0.00,CLR,,0.00,WeatherDisplay:10.37,2013-06-30 15:43:00,
2013-06-30 11:48:00,84.9,66.4,29.72,South,180,3.5,3.5,54,0.00,CLR,,0.00,WeatherDisplay:10.37,2013-06-30 15:48:00,
2013-06-30 11:53:00,85.1,67.1,29.72,ESE,112,5.3,5.3,55,0.00,CLR,,0.00,WeatherDisplay:10.37,2013-06-30 15:53:00,
2013-06-30 11:58:00,86.0,68.5,29.72,West,270,3.5,3.5,56,0.00,CLR,,0.00,WeatherDisplay:10.37,2013-06-30 15:58:00,
2013-06-30 12:03:00,86.0,67.4,29.72,ESE,112,7.3,7.3,54,0.00,CLR,,0.00,WeatherDisplay:10.37,2013-06-30 16:03:00,
2013-06-30 12:08:00,85.6,66.5,29.72,NE,45,3.5,3.5,53,0.00,CLR,,0.00,WeatherDisplay:10.37,2013-06-30 16:08:00,
2013-06-30 12:13:00,86.2,67.6,29.72,NNE,22,3.5,3.5,54,0.00,CLR,,0.00,WeatherDisplay:10.37,2013-06-30 16:13:00,
2013-06-30 12:18:00,86.0,67.4,29.72,NE,45,6.9,6.9,54,0.00,CLR,,0.00,WeatherDisplay:10.37,2013-06-30 16:18:00,
2013-06-30 12:23:00,86.5,67.9,29.72,NE,45,3.2,3.2,54,0.00,CLR,,0.00,WeatherDisplay:10.37,2013-06-30 16:23:00,
2013-06-30 12:28:00,86.2,67.1,29.72,West,270,3.5,3.5,53,0.00,CLR,,0.00,WeatherDisplay:10.37,2013-06-30 16:28:00,
2013-06-30 12:33:00,86.4,66.7,29.72,ENE,68,4.6,4.6,52,0.00,CLR,,0.00,WeatherDisplay:10.37,2013-06-30 16:33:00,
2013-06-30 12:38:00,86.5,66.8,29.71,East,90,3.2,3.2,52,0.00,CLR,,0.00,WeatherDisplay:10.37,2013-06-30 16:38:00,
2013-06-30 12:43:00,87.1,67.3,29.71,SE,135,3.5,3.5,52,0.00,CLR,,0.00,WeatherDisplay:10.37,2013-06-30 16:43:00,
2013-06-30 12:48:00,86.7,67.0,29.71,South,180,4.7,4.7,52,0.00,CLR,,0.00,WeatherDisplay:10.37,2013-06-30 16:48:00,
2013-06-30 12:53:00,86.2,67.1,29.71,SSE,158,3.7,3.7,53,0.00,CLR,,0.00,WeatherDisplay:10.37,2013-06-30 16:53:00,
2013-06-30 12:58:00,86.0,66.9,29.71,South,180,3.7,3.8,53,0.00,CLR,,0.00,WeatherDisplay:10.37,2013-06-30 16:58:00,
2013-06-30 13:03:00,86.0,67.4,29.72,NE,45,2.3,2.3,54,0.00,CLR,,0.00,WeatherDisplay:10.37,2013-06-30 17:03:00,
2013-06-30 13:08:00,85.6,68.1,29.72,ESE,112,3.5,3.5,56,0.00,CLR,,0.00,WeatherDisplay:10.37,2013-06-30 17:08:00,
2013-06-30 13:14:00,86.7,67.0,29.72,East,90,5.8,5.8,52,0.00,CLR,,0.00,WeatherDisplay:10.37,2013-06-30 17:14:00,
2013-06-30 13:19:00,85.5,65.9,29.72,South,180,4.6,4.6,52,0.00,CLR,,0.00,WeatherDisplay:10.37,2013-06-30 17:19:00,
2013-06-30 13:24:00,86.4,67.2,29.72,SSE,158,5.8,5.8,53,0.00,CLR,,0.00,WeatherDisplay:10.37,2013-06-30 17:24:00,
2013-06-30 13:29:00,87.3,67.5,29.71,East,90,3.5,3.5,52,0.00,CLR,,0.00,WeatherDisplay:10.37,2013-06-30 17:29:00,
2013-06-30 13:34:00,86.4,65.6,29.71,South,180,5.8,5.8,50,0.00,CLR,,0.00,WeatherDisplay:10.37,2013-06-30 17:34:00,
2013-06-30 13:39:00,86.5,66.2,29.71,SSE,158,4.6,4.7,51,0.00,CLR,,0.00,WeatherDisplay:10.37,2013-06-30 17:39:00,
2013-06-30 13:44:00,86.4,65.6,29.71,ESE,112,5.3,5.3,50,0.00,CLR,,0.00,WeatherDisplay:10.37,2013-06-30 17:44:00,
2013-06-30 13:49:00,86.2,65.4,29.71,ESE,112,3.5,3.5,50,0.00,CLR,,0.00,WeatherDisplay:10.37,2013-06-30 17:49:00,
2013-06-30 13:54:00,87.3,65.2,29.71,NNE,22,3.5,3.5,48,0.00,CLR,,0.00,WeatherDisplay:10.37,2013-06-30 17:54:00,
2013-06-30 13:59:00,87.1,65.0,29.71,South,180,4.7,4.7,48,0.00,CLR,,0.00,WeatherDisplay:10.37,2013-06-30 17:59:00,
2013-06-30 14:04:00,87.6,67.2,29.71,SSE,158,3.5,3.5,51,0.00,CLR,,0.00,WeatherDisplay:10.37,2013-06-30 18:04:00,
2013-06-30 14:09:00,87.3,65.2,29.71,East,90,5.8,5.8,48,0.00,CLR,,0.00,WeatherDisplay:10.37,2013-06-30 18:09:00,
2013-06-30 14:14:00,86.9,65.4,29.71,NNE,22,2.3,2.3,49,0.00,CLR,,0.00,WeatherDisplay:10.37,2013-06-30 18:14:00,
2013-06-30 14:19:00,87.3,65.8,29.71,NE,45,3.5,3.5,49,0.00,CLR,,0.00,WeatherDisplay:10.37,2013-06-30 18:19:00,
2013-06-30 14:24:00,86.5,65.1,29.71,SE,135,3.2,3.2,49,0.00,CLR,,0.00,WeatherDisplay:10.37,2013-06-30 18:24:00,
2013-06-30 14:29:00,86.0,65.8,29.71,SSE,158,3.7,3.7,51,0.00,CLR,,0.00,WeatherDisplay:10.37,2013-06-30 18:29:00,
2013-06-30 14:34:00,86.4,66.1,29.71,SE,135,3.5,3.5,51,0.00,CLR,,0.00,WeatherDisplay:10.37,2013-06-30 18:34:00,
2013-06-30 14:39:00,86.9,67.7,29.72,NE,45,4.6,4.6,53,0.00,CLR,,0.00,WeatherDisplay:10.37,2013-06-30 18:39:00,
2013-06-30 14:44:00,85.6,67.0,29.72,NE,45,2.3,2.4,54,0.00,CLR,,0.00,WeatherDisplay:10.37,2013-06-30 18:44:00,
2013-06-30 14:49:00,86.4,67.2,29.72,SSE,158,4.6,0.0,53,0.00,CLR,,0.00,WeatherDisplay:10.37,2013-06-30 18:49:00,
2013-06-30 14:54:00,86.7,68.1,29.72,South,180,3.5,3.5,54,0.00,CLR,,0.00,WeatherDisplay:10.37,2013-06-30 18:54:00,
2013-06-30 14:59:00,86.2,67.6,29.72,ESE,112,3.5,3.5,54,0.00,CLR,,0.00,WeatherDisplay:10.37,2013-06-30 18:59:00,
2013-06-30 15:04:00,85.3,66.8,29.72,SE,135,5.8,5.8,54,0.00,CLR,,0.00,WeatherDisplay:10.37,2013-06-30 19:04:00,
2013-06-30 15:09:00,85.6,67.0,29.72,SSE,158,4.6,4.6,54,0.00,CLR,,0.00,WeatherDisplay:10.37,2013-06-30 19:09:00,
2013-06-30 15:14:00,85.8,68.3,29.72,NE,45,3.2,3.2,56,0.00,CLR,,0.00,WeatherDisplay:10.37,2013-06-30 19:14:00,
2013-06-30 15:19:00,86.7,68.6,29.72,ESE,112,1.2,0.0,55,0.00,CLR,,0.00,WeatherDisplay:10.37,2013-06-30 19:19:00,
2013-06-30 15:24:00,85.6,68.1,29.72,ESE,112,1.2,1.2,56,0.00,CLR,,0.00,WeatherDisplay:10.37,2013-06-30 19:24:00,
2013-06-30 15:29:00,85.5,68.0,29.72,NNE,22,2.3,2.3,56,0.00,CLR,,0.00,WeatherDisplay:10.37,2013-06-30 19:29:00,
2013-06-30 15:34:00,85.8,68.3,29.72,ESE,112,3.5,3.5,56,0.00,CLR,,0.00,WeatherDisplay:10.37,2013-06-30 19:34:00,
2013-06-30 15:39:00,85.6,67.6,29.72,South,180,4.6,4.6,55,0.00,CLR,,0.00,WeatherDisplay:10.37,2013-06-30 19:39:00,
2013-06-30 15:44:00,85.3,67.8,29.72,SSE,158,4.7,4.7,56,0.00,CLR,,0.00,WeatherDisplay:10.37,2013-06-30 19:44:00,
2013-06-30 15:49:00,85.3,67.8,29.72,South,180,4.6,4.6,56,0.00,CLR,,0.00,WeatherDisplay:10.37,2013-06-30 19:49:00,
2013-06-30 15:54:00,84.9,67.5,29.72,SE,135,3.5,3.5,56,0.00,CLR,,0.00,WeatherDisplay:10.37,2013-06-30 19:54:00,
2013-06-30 15:59:00,84.9,68.0,29.72,ENE,68,2.3,2.3,57,0.00,CLR,,0.00,WeatherDisplay:10.37,2013-06-30 19:59:00,
2013-06-30 16:04:00,84.7,68.3,29.71,West,270,3.5,3.5,58,0.00,CLR,,0.00,WeatherDisplay:10.37,2013-06-30 20:04:00,
2013-06-30 16:09:00,84.7,68.8,29.71,ESE,112,3.2,3.2,59,0.00,CLR,,0.00,WeatherDisplay:10.37,2013-06-30 20:09:00,
2013-06-30 16:14:00,84.2,69.3,29.72,ESE,112,2.3,2.3,61,0.00,CLR,,0.00,WeatherDisplay:10.37,2013-06-30 20:14:00,
2013-06-30 16:19:00,84.2,68.8,29.72,WNW,292,6.9,6.9,60,0.00,CLR,,0.00,WeatherDisplay:10.37,2013-06-30 20:19:00,
2013-06-30 16:24:00,84.0,68.6,29.72,NNE,22,3.5,3.5,60,0.00,CLR,,0.00,WeatherDisplay:10.37,2013-06-30 20:24:00,
2013-06-30 16:29:00,84.0,69.1,29.72,ESE,112,6.3,6.3,61,0.00,CLR,,0.00,WeatherDisplay:10.37,2013-06-30 20:29:00,
2013-06-30 16:34:00,84.2,68.8,29.72,NE,45,3.7,3.7,60,0.00,CLR,,0.00,WeatherDisplay:10.37,2013-06-30 20:34:00,
2013-06-30 16:39:00,84.4,69.0,29.72,ESE,112,5.3,5.3,60,0.00,CLR,,0.00,WeatherDisplay:10.37,2013-06-30 20:39:00,
2013-06-30 16:44:00,83.7,69.8,29.72,ESE,112,4.6,4.6,63,0.00,CLR,,0.00,WeatherDisplay:10.37,2013-06-30 20:44:00,
2013-06-30 16:49:00,83.1,68.7,29.73,East,90,2.3,2.3,62,0.00,CLR,,0.00,WeatherDisplay:10.37,2013-06-30 20:49:00,
2013-06-30 16:54:00,83.7,69.3,29.73,South,180,3.2,3.2,62,0.00,CLR,,0.00,WeatherDisplay:10.37,2013-06-30 20:54:00,
2013-06-30 16:59:00,83.7,69.3,29.73,ENE,68,5.8,5.8,62,0.00,CLR,,0.00,WeatherDisplay:10.37,2013-06-30 20:59:00,
2013-06-30 17:04:00,83.8,68.9,29.74,ENE,68,4.6,4.6,61,0.00,CLR,,0.00,WeatherDisplay:10.37,2013-06-30 21:04:00,
2013-06-30 17:09:00,84.0,69.1,29.74,ENE,68,6.3,6.3,61,0.00,CLR,,0.00,WeatherDisplay:10.37,2013-06-30 21:09:00,
2013-06-30 17:14:00,84.4,69.5,29.74,SSE,158,2.7,2.7,61,0.00,CLR,,0.00,WeatherDisplay:10.37,2013-06-30 21:14:00,
2013-06-30 17:19:00,84.9,69.9,29.74,SE,135,3.2,3.2,61,0.00,CLR,,0.00,WeatherDisplay:10.37,2013-06-30 21:19:00,
2013-06-30 17:24:00,84.7,69.8,29.74,East,90,2.7,2.7,61,0.00,CLR,,0.00,WeatherDisplay:10.37,2013-06-30 21:24:00,
2013-06-30 17:29:00,84.7,69.8,29.74,East,90,2.7,2.7,61,0.00,CLR,,0.00,WeatherDisplay:10.37,2013-06-30 21:29:00,
2013-06-30 17:34:00,85.1,69.7,29.74,ENE,68,4.6,4.6,60,0.00,CLR,,0.00,WeatherDisplay:10.37,2013-06-30 21:34:00,
2013-06-30 17:39:00,85.1,69.2,29.74,East,90,4.6,4.6,59,0.00,CLR,,0.00,WeatherDisplay:10.37,2013-06-30 21:39:00,
2013-06-30 17:44:00,85.1,70.1,29.74,NNE,22,1.2,1.2,61,0.00,CLR,,0.00,WeatherDisplay:10.37,2013-06-30 21:44:00,
2013-06-30 17:49:00,84.6,69.7,29.74,South,180,3.5,3.5,61,0.00,CLR,,0.00,WeatherDisplay:10.37,2013-06-30 21:49:00,
2013-06-30 17:54:00,84.2,68.8,29.74,NNE,22,4.6,4.7,60,0.00,CLR,,0.00,WeatherDisplay:10.37,2013-06-30 21:54:00,
2013-06-30 18:00:00,84.4,68.5,29.74,West,270,5.8,5.8,59,0.00,CLR,,0.00,WeatherDisplay:10.37,2013-06-30 22:00:00,
2013-06-30 18:05:00,84.0,68.6,29.74,East,90,3.7,3.7,60,0.00,CLR,,0.00,WeatherDisplay:10.37,2013-06-30 22:05:00,
2013-06-30 18:10:00,84.2,67.8,29.74,SE,135,4.2,4.2,58,0.00,CLR,,0.00,WeatherDisplay:10.37,2013-06-30 22:10:00,
2013-06-30 18:15:00,83.7,67.8,29.75,ESE,112,5.3,5.3,59,0.00,CLR,,0.00,WeatherDisplay:10.37,2013-06-30 22:15:00,
2013-06-30 18:20:00,84.0,68.1,29.75,East,90,3.5,3.5,59,0.00,CLR,,0.00,WeatherDisplay:10.37,2013-06-30 22:20:00,
2013-06-30 18:25:00,83.5,68.2,29.75,ESE,112,2.3,2.3,60,0.00,CLR,,0.00,WeatherDisplay:10.37,2013-06-30 22:25:00,
2013-06-30 18:30:00,83.0,68.2,29.75,SE,146,2.0,5.0,61,0.00,CLR,,0.00,WeatherDisplay:10.37,2013-06-30 22:30:00,
2013-06-30 18:35:00,82.6,67.8,29.75,SE,125,2.0,6.0,61,0.00,CLR,,0.00,WeatherDisplay:10.37,2013-06-30 22:35:00,
2013-06-30 18:40:00,81.9,67.6,29.76,NE,45,3.5,3.5,62,0.00,CLR,,0.00,WeatherDisplay:10.37,2013-06-30 22:40:00,
2013-06-30 18:45:00,82.0,67.2,29.76,SE,135,5.8,5.8,61,0.00,CLR,,0.00,WeatherDisplay:10.37,2013-06-30 22:45:00,
2013-06-30 18:50:00,82.2,67.4,29.76,West,270,2.3,2.3,61,0.00,CLR,,0.00,WeatherDisplay:10.37,2013-06-30 22:50:00,
2013-06-30 18:55:00,81.7,67.4,29.76,WNW,292,1.2,1.2,62,0.00,CLR,,0.00,WeatherDisplay:10.37,2013-06-30 22:55:00,
2013-06-30 19:00:00,82.1,67.8,29.76,ENE,67,0.0,2.0,62,0.00,CLR,,0.00,WeatherDisplay:10.37,2013-06-30 23:00:00,
2013-06-30 19:05:00,81.7,67.9,29.76,ENE,68,2.2,2.2,63,0.00,CLR,,0.00,WeatherDisplay:10.37,2013-06-30 23:05:00,
2013-06-30 19:10:00,81.5,68.1,29.76,NNE,22,2.3,2.3,64,0.00,CLR,,0.00,WeatherDisplay:10.37,2013-06-30 23:10:00,
2013-06-30 19:15:00,81.3,68.0,29.77,ESE,102,0.0,4.0,64,0.00,CLR,,0.00,WeatherDisplay:10.37,2013-06-30 23:15:00,
2013-06-30 19:20:00,81.3,68.4,29.77,NNE,22,3.2,3.2,65,0.00,CLR,,0.00,WeatherDisplay:10.37,2013-06-30 23:20:00,
2013-06-30 19:25:00,81.0,68.1,29.77,SSE,150,2.0,6.0,65,0.00,CLR,,0.00,WeatherDisplay:10.37,2013-06-30 23:25:00,
2013-06-30 19:30:00,80.4,68.4,29.77,NNE,22,3.2,3.2,67,0.00,CLR,,0.00,WeatherDisplay:10.37,2013-06-30 23:30:00,
2013-06-30 19:35:00,80.4,68.4,29.77,ENE,68,2.3,2.3,67,0.00,CLR,,0.00,WeatherDisplay:10.37,2013-06-30 23:35:00,
2013-06-30 19:40:00,80.1,67.7,29.78,NNE,22,4.6,4.6,66,0.00,CLR,,0.00,WeatherDisplay:10.37,2013-06-30 23:40:00,
2013-06-30 19:45:00,79.9,66.6,29.78,South,180,3.7,3.7,64,0.00,CLR,,0.00,WeatherDisplay:10.37,2013-06-30 23:45:00,
2013-06-30 19:50:00,79.7,66.4,29.78,ENE,68,2.3,2.3,64,0.00,CLR,,0.00,WeatherDisplay:10.37,2013-06-30 23:50:00,
2013-06-30 19:55:00,79.7,66.9,29.78,ESE,119,2.0,5.0,65,0.00,CLR,,0.00,WeatherDisplay:10.37,2013-06-30 23:55:00,
2013-06-30 20:00:00,79.7,66.9,29.78,SSE,158,1.2,1.2,65,0.00,CLR,,0.00,WeatherDisplay:10.37,2013-07-01 00:00:00,
2013-06-30 20:05:00,79.3,66.5,29.78,SSE,158,3.5,3.5,65,0.00,CLR,,0.00,WeatherDisplay:10.37,2013-07-01 00:05:00,
2013-06-30 20:10:00,79.3,66.5,29.78,South,180,2.3,2.3,65,0.00,CLR,,0.00,WeatherDisplay:10.37,2013-07-01 00:10:00,
2013-06-30 20:15:00,79.2,66.9,29.78,East,90,2.3,2.3,66,0.00,CLR,,0.00,WeatherDisplay:10.37,2013-07-01 00:15:00,
2013-06-30 20:20:00,78.8,66.5,29.78,WNW,292,1.2,1.2,66,0.00,CLR,,0.00,WeatherDisplay:10.37,2013-07-01 00:20:00,
2013-06-30 20:25:00,78.6,66.7,29.78,South,180,2.3,2.3,67,0.00,CLR,,0.00,WeatherDisplay:10.37,2013-07-01 00:25:00,
2013-06-30 20:30:00,78.3,66.4,29.77,ESE,112,0.0,0.0,67,0.00,CLR,,0.00,WeatherDisplay:10.37,2013-07-01 00:30:00,
2013-06-30 20:35:00,78.1,66.7,29.77,East,90,2.3,2.3,68,0.00,CLR,,0.00,WeatherDisplay:10.37,2013-07-01 00:35:00,
2013-06-30 20:40:00,77.7,66.7,29.78,ENE,68,0.0,0.0,69,0.00,CLR,,0.00,WeatherDisplay:10.37,2013-07-01 00:40:00,
2013-06-30 20:45:00,77.5,66.9,29.78,ESE,112,4.6,4.6,70,0.00,CLR,,0.00,WeatherDisplay:10.37,2013-07-01 00:45:00,
2013-06-30 20:50:00,77.4,66.8,29.79,South,180,3.5,3.5,70,0.00,CLR,,0.00,WeatherDisplay:10.37,2013-07-01 00:50:00,
2013-06-30 20:55:00,77.4,66.8,29.79,South,180,2.3,2.3,70,0.00,CLR,,0.00,WeatherDisplay:10.37,2013-07-01 00:55:00,
2013-06-30 21:00:00,77.2,66.7,29.79,South,180,1.2,1.2,70,0.00,CLR,,0.00,WeatherDisplay:10.37,2013-07-01 01:00:00,
2013-06-30 21:05:00,77.0,66.9,29.79,NE,45,1.7,1.7,71,0.00,CLR,,0.00,WeatherDisplay:10.37,2013-07-01 01:05:00,
2013-06-30 21:10:00,77.0,66.9,29.79,ESE,112,2.3,2.3,71,0.00,CLR,,0.00,WeatherDisplay:10.37,2013-07-01 01:10:00,
2013-06-30 21:15:00,76.6,66.9,29.79,ESE,112,1.2,1.6,72,0.00,CLR,,0.00,WeatherDisplay:10.37,2013-07-01 01:15:00,
2013-06-30 21:20:00,76.5,67.2,29.79,SE,135,0.0,0.0,73,0.00,CLR,,0.00,WeatherDisplay:10.37,2013-07-01 01:20:00,
2013-06-30 21:25:00,76.1,67.2,29.79,NNE,22,2.7,2.7,74,0.00,CLR,,0.00,WeatherDisplay:10.37,2013-07-01 01:25:00,
2013-06-30 21:30:00,75.9,67.0,29.80,SSE,158,2.3,2.3,74,0.00,CLR,,0.00,WeatherDisplay:10.37,2013-07-01 01:30:00,
2013-06-30 21:35:00,75.9,67.4,29.80,ESE,112,0.0,0.0,75,0.00,CLR,,0.00,WeatherDisplay:10.37,2013-07-01 01:35:00,
2013-06-30 21:40:00,75.7,67.2,29.80,NE,45,1.2,1.2,75,0.00,CLR,,0.00,WeatherDisplay:10.37,2013-07-01 01:40:00,
2013-06-30 21:45:00,75.7,67.2,29.80,ESE,112,2.3,2.3,75,0.00,CLR,,0.00,WeatherDisplay:10.37,2013-07-01 01:45:00,
2013-06-30 21:50:00,75.7,67.2,29.80,East,90,1.7,1.7,75,0.00,CLR,,0.00,WeatherDisplay:10.37,2013-07-01 01:50:00,
2013-06-30 21:55:00,75.4,66.9,29.81,South,180,2.3,2.3,75,0.00,CLR,,0.00,WeatherDisplay:10.37,2013-07-01 01:55:00,
2013-06-30 22:00:00,75.2,67.1,29.81,NE,45,0.0,0.0,76,0.00,CLR,,0.00,WeatherDisplay:10.37,2013-07-01 02:00:00,
2013-06-30 22:05:00,74.8,66.7,29.81,NNE,22,0.0,0.0,76,0.00,CLR,,0.00,WeatherDisplay:10.37,2013-07-01 02:05:00,
2013-06-30 22:10:00,74.5,66.8,29.81,ENE,68,3.5,3.5,77,0.00,CLR,,0.00,WeatherDisplay:10.37,2013-07-01 02:10:00,
2013-06-30 22:15:00,74.5,66.8,29.81,SE,135,1.2,0.0,77,0.00,CLR,,0.00,WeatherDisplay:10.37,2013-07-01 02:15:00,
2013-06-30 22:20:00,74.5,66.8,29.81,ESE,112,0.0,0.0,77,0.00,CLR,,0.00,WeatherDisplay:10.37,2013-07-01 02:20:00,
2013-06-30 22:25:00,74.1,66.4,29.81,SE,135,1.2,1.2,77,0.00,CLR,,0.00,WeatherDisplay:10.37,2013-07-01 02:25:00,
2013-06-30 22:30:00,74.1,66.8,29.82,SSE,158,2.2,2.2,78,0.00,CLR,,0.00,WeatherDisplay:10.37,2013-07-01 02:30:00,
2013-06-30 22:35:00,73.9,66.6,29.82,NE,45,2.3,2.3,78,0.00,CLR,,0.00,WeatherDisplay:10.37,2013-07-01 02:35:00,
2013-06-30 22:40:00,73.9,66.6,29.82,East,90,0.0,0.0,78,0.00,CLR,,0.00,WeatherDisplay:10.37,2013-07-01 02:40:00,
2013-06-30 22:45:00,73.9,66.6,29.82,ESE,112,1.7,1.7,78,0.00,CLR,,0.00,WeatherDisplay:10.37,2013-07-01 02:45:00,
2013-06-30 22:50:00,73.8,66.5,29.82,East,90,2.3,2.3,78,0.00,CLR,,0.00,WeatherDisplay:10.37,2013-07-01 02:50:00,
2013-06-30 22:55:00,73.8,66.5,29.82,ESE,112,0.0,0.0,78,0.00,CLR,,0.00,WeatherDisplay:10.37,2013-07-01 02:55:00,
2013-06-30 23:00:00,73.8,66.5,29.82,SE,135,0.0,0.0,78,0.00,CLR,,0.00,WeatherDisplay:10.37,2013-07-01 03:00:00,
2013-06-30 23:05:00,74.3,66.6,29.81,SSE,158,0.0,0.0,77,0.00,CLR,,0.00,WeatherDisplay:10.37,2013-07-01 03:05:00,
2013-06-30 23:10:00,74.3,66.6,29.81,South,180,0.0,0.0,77,0.00,CLR,,0.00,WeatherDisplay:10.37,2013-07-01 03:10:00,
2013-06-30 23:15:00,74.1,66.8,29.82,ESE,112,0.0,0.0,78,0.00,CLR,,0.00,WeatherDisplay:10.37,2013-07-01 03:15:00,
2013-06-30 23:20:00,73.8,66.5,29.82,ENE,68,0.0,0.0,78,0.00,CLR,,0.00,WeatherDisplay:10.37,2013-07-01 03:20:00,
2013-06-30 23:25:00,73.6,66.3,29.82,NE,45,0.0,0.0,78,0.00,CLR,,0.00,WeatherDisplay:10.37,2013-07-01 03:25:00,
2013-06-30 23:31:00,73.6,66.7,29.82,SSE,158,0.0,0.0,79,0.00,CLR,,0.00,WeatherDisplay:10.37,2013-07-01 03:31:00,
2013-06-30 23:36:00,73.4,66.5,29.82,South,180,0.0,0.0,79,0.00,CLR,,0.00,WeatherDisplay:10.37,2013-07-01 03:36:00,
2013-06-30 23:41:00,73.2,66.7,29.82,SSE,158,0.0,0.0,80,0.00,CLR,,0.00,WeatherDisplay:10.37,2013-07-01 03:41:00,
2013-06-30 23:46:00,73.2,66.7,29.82,South,180,0.0,0.0,80,0.00,CLR,,0.00,WeatherDisplay:10.37,2013-07-01 03:46:00,
2013-06-30 23:51:00,73.2,66.7,29.82,SSE,158,0.0,0.0,80,0.00,CLR,,0.00,WeatherDisplay:10.37,2013-07-01 03:51:00,
2013-06-30 23:56:00,73.2,66.7,29.82,South,180,0.0,0.0,80,0.00,CLR,,0.00,WeatherDisplay:10.37,2013-07-01 03:56:00,